Lincoln, NE

1:52 AM CST on November 20, 2019 (GMT -0600)
Lincoln Municipal

Weather History for KLNK - August, 2019

Change the Weather History Date:

Tuesday, August 6, 2019

  Actual Average Record
Temperature  
Mean Temperature 78 °F 77 °F  
Max Temperature 90 °F 88 °F 104 °F (1918)
Min Temperature 66 °F 66 °F 49 °F (1990)
Degree Days  
Heating Degree Days 0 0  
Month to date heating degree days 0 0  
Since 1 June heating degree days 6 17  
Since 1 July heating degree days 0 1  
Cooling Degree Days 13 12  
Month to date cooling degree days 70 72  
Year to date cooling degree days 816 783  
Since 1 June cooling degree days 744 704  
Growing Degree Days 28 (Base 50)    
Moisture  
Dew Point 63 °F    
Average Humidity 64    
Maximum Humidity 93    
Minimum Humidity 34    
Precipitation  
Precipitation 0.00 in 0.11 in 1.68 in (1898)
Month to date precipitation 0.02 0.63  
Year to date precipitation 21.89 18.72  
Snow  
Snow 0.00 in 0.00 in 0.00 in (2006)
Month to date snowfall 0.0 0.0  
Since 1 June snowfall 0.0 0.0  
Since 1 July snowfall 0.0 0.0  
Snow Depth 0.00 in    
Sea Level Pressure  
Sea Level Pressure 29.92 in    
Wind  
Wind Speed 6 mph (NNE)    
Max Wind Speed 10 mph    
Max Gust Speed 14 mph    
Visibility 10 miles    
Events      
T = Trace of Precipitation, MM = Missing Value Source: NWS Daily Summary

Daily Weather History Graph

Daily Weather History Graph

Search for Another Location

Airport or City:

Astronomy

Aug. 06, 2019 Rise Set
Actual Time 6:28 AM CDT 8:37 PM CDT
Civil Twilight 5:57 AM CDT 9:07 PM CDT
Nautical Twilight 5:20 AM CDT 9:44 PM CDT
Astronomical Twilight 4:39 AM CDT 10:25 PM CDT
Moon 12:57 PM CDT (8/6) No Moon Set
Length of Visible Light 15h 09m
Length of Day
14h 09m
Waxing Crescent, 39% of the Moon is Illuminated
Aug 6
Waxing Crescent
Aug 7
First Quarter
Aug 15
Full
Aug 23
Last Quarter
Aug 30
New

Hourly Weather History & Observations

Time (CDT) Temp. Heat Index Dew Point Humidity Pressure Visibility Wind Dir Wind Speed Gust Speed Precip Events Conditions
12:54 AM 77.0 °F - 71.1 °F 82% 29.91 in 10.0 mi North 8.1 mph - N/A   Overcast
1:54 AM 75.9 °F - 69.1 °F 79% 29.91 in 10.0 mi NNW 8.1 mph - N/A   Overcast
2:54 AM 73.0 °F - 68.0 °F 84% 29.91 in 10.0 mi North 9.2 mph - N/A   Partly Cloudy
3:54 AM 72.0 °F - 66.9 °F 84% 29.93 in 10.0 mi North 8.1 mph - N/A   Partly Cloudy
4:54 AM 70.0 °F - 66.9 °F 90% 29.93 in 10.0 mi North 6.9 mph - N/A   Clear
5:54 AM 66.9 °F - 64.0 °F 90% 29.94 in 10.0 mi North 6.9 mph - N/A   Clear
6:54 AM 66.9 °F - 64.0 °F 90% 29.96 in 10.0 mi North 4.6 mph - N/A   Clear
7:54 AM 71.1 °F - 64.9 °F 81% 29.96 in 10.0 mi North 5.8 mph - N/A   Clear
8:54 AM 73.9 °F - 64.9 °F 73% 29.96 in 10.0 mi NNE 6.9 mph - N/A   Clear
9:54 AM 77.0 °F - 63.0 °F 62% 29.97 in 10.0 mi NE 5.8 mph - N/A   Clear
10:54 AM 80.1 °F 81.5 °F 63.0 °F 56% 29.96 in 10.0 mi North 4.6 mph - N/A   Clear
11:54 AM 82.9 °F 84.0 °F 63.0 °F 51% 29.96 in 10.0 mi NW 3.5 mph - N/A   Clear
12:54 PM 86.0 °F 86.1 °F 61.0 °F 43% 29.95 in 10.0 mi NNE 5.8 mph - N/A   Clear
1:54 PM 87.1 °F 86.7 °F 60.1 °F 40% 29.93 in 10.0 mi West 3.5 mph - N/A   Clear
2:54 PM 88.0 °F 87.6 °F 60.1 °F 39% 29.91 in 10.0 mi NE 5.8 mph - N/A   Clear
3:54 PM 89.1 °F 88.2 °F 59.0 °F 36% 29.91 in 10.0 mi NE 5.8 mph - N/A   Clear
4:54 PM 89.1 °F 88.0 °F 57.9 °F 35% 29.89 in 10.0 mi WNW 5.8 mph - N/A   Clear
5:54 PM 88.0 °F 87.9 °F 61.0 °F 40% 29.88 in 10.0 mi NNE 4.6 mph - N/A   Clear
6:54 PM 86.0 °F 86.1 °F 61.0 °F 43% 29.86 in 10.0 mi ENE 5.8 mph - N/A   Clear
7:54 PM 82.9 °F 83.7 °F 62.1 °F 49% 29.86 in 10.0 mi East 8.1 mph - N/A   Clear
8:54 PM 80.1 °F 80.9 °F 60.1 °F 50% 29.87 in 10.0 mi ESE 4.6 mph - N/A   Clear
9:54 PM 79.0 °F - 61.0 °F 54% 29.88 in 10.0 mi South 3.5 mph - N/A   Clear
10:54 PM 75.9 °F - 62.1 °F 62% 29.87 in 10.0 mi South 4.6 mph - N/A   Clear
11:54 PM 73.9 °F - 63.0 °F 68% 29.88 in 10.0 mi SE 4.6 mph - N/A   Clear